Latest Weather Observations for Little Bay

IDN60901

Issued at 5:45 am EST Wednesday 1 October 2014 (issued every 10 minutes, with the page automatically refreshed every 10 minutes)

About weather observations | Map of Sydney area stations | Latest observations for Sydney area | Other Formats
Station Details ID: 066051 Name: LITTLE BAY (THE COAST GOLF CLUB) Lat: -33.98 Lon: 151.25 Height: 22.0 m
Data from the previous 72 hours. | See also: Recent months for locations in New South Wales
Date/Time
EST
Tmp

°C
App
Tmp
°C
Dew
Point
°C
Rel
Hum
%
Delta-T

°C
Wind Press
QNH
hPa
Press
MSL
hPa
Rain
since
9 am
mm
Dir
 
Spd
km/h
Gust
km/h
Spd
kts
Gust
kts
01/05:34am - - - - - SW 30 48 16 26 - - -
01/05:30am - - - - - SW 32 48 17 26 - - -
01/05:02am - - - - - SW 28 57 15 31 - - -
01/05:00am - - - - - SW 26 57 14 31 - - -
01/04:30am - - - - - SW 24 37 13 20 - - -
01/04:00am - - - - - SSW 32 46 17 25 - - -
01/03:30am - - - - - SW 28 43 15 23 - - -
01/03:00am - - - - - SW 28 43 15 23 - - -
01/02:31am - - - - - SW 28 48 15 26 - - -
01/02:30am - - - - - SW 28 41 15 22 - - -
01/02:25am - - - - - SW 28 46 15 25 - - -
01/02:00am - - - - - WSW 11 17 6 9 - - -
01/01:30am - - - - - SSW 6 11 3 6 - - -
01/01:00am - - - - - WSW 6 9 3 5 - - -
01/12:30am - - - - - WSW 6 9 3 5 - - -
01/12:00am - - - - - SSE 0 4 0 2 - - -
 
Date/Time
EST
Tmp

°C
App
Tmp
°C
Dew
Point
°C
Rel
Hum
%
Delta-T

°C
Wind Press
QNH
hPa
Press
MSL
hPa
Rain
since
9 am
mm
Dir
 
Spd
km/h
Gust
km/h
Spd
kts
Gust
kts
30/11:30pm - - - - - N 2 6 1 3 - - -
30/11:00pm - - - - - NW 4 9 2 5 - - -
30/10:30pm - - - - - N 9 13 5 7 - - -
30/10:00pm - - - - - N 7 9 4 5 - - -
30/09:30pm - - - - - N 7 9 4 5 - - -
30/09:00pm - - - - - N 9 15 5 8 - - -
30/08:30pm - - - - - NNW 9 15 5 8 - - -
30/08:00pm - - - - - NNW 11 17 6 9 - - -
30/07:30pm - - - - - NW 11 20 6 11 - - -
30/07:00pm - - - - - NNW 11 15 6 8 - - -
30/06:30pm - - - - - NW 7 11 4 6 - - -
30/06:00pm - - - - - NW 11 22 6 12 - - -
30/05:30pm - - - - - W 11 22 6 12 - - -
30/05:00pm - - - - - WNW 20 30 11 16 - - -
30/04:30pm - - - - - WNW 19 30 10 16 - - -
30/04:00pm - - - - - NW 15 28 8 15 - - -
30/03:30pm - - - - - N 15 24 8 13 - - -
30/03:00pm - - - - - N 19 26 10 14 - - -
30/02:30pm - - - - - N 19 30 10 16 - - -
30/02:00pm - - - - - N 28 39 15 21 - - -
30/01:30pm - - - - - N 24 35 13 19 - - -
30/01:00pm - - - - - NNE 26 32 14 17 - - -
30/12:30pm - - - - - NNE 17 22 9 12 - - -
30/12:00pm - - - - - NNE 15 19 8 10 - - -
30/11:30am - - - - - N 17 26 9 14 - - -
30/11:00am - - - - - NNW 19 32 10 17 - - -
30/10:30am - - - - - N 17 30 9 16 - - -
30/10:00am - - - - - N 13 19 7 10 - - -
30/09:30am - - - - - N 13 22 7 12 - - -
30/09:00am - - - - - NNW 9 17 5 9 - - -
30/08:30am - - - - - NNW 9 15 5 8 - - -
30/08:00am - - - - - NNW 7 13 4 7 - - -
30/07:30am - - - - - NW 7 11 4 6 - - -
30/07:00am - - - - - WNW 9 13 5 7 - - -
30/06:30am - - - - - WNW 7 9 4 5 - - -
30/06:00am - - - - - NW 6 7 3 4 - - -
30/05:30am - - - - - NNW 6 7 3 4 - - -
30/05:00am - - - - - NNW 4 6 2 3 - - -
30/04:30am - - - - - NNW 4 6 2 3 - - -
30/04:00am - - - - - N 6 7 3 4 - - -
30/03:30am - - - - - N 4 4 2 2 - - -
30/03:00am - - - - - NW 4 4 2 2 - - -
30/02:30am - - - - - CALM 0 0 0 0 - - -
30/02:00am - - - - - CALM 0 0 0 0 - - -
30/01:30am - - - - - WSW 4 4 2 2 - - -
30/01:00am - - - - - WSW 2 4 1 2 - - -
30/12:30am - - - - - WSW 6 6 3 3 - - -
30/12:00am - - - - - SW 6 7 3 4 - - -
 
Date/Time
EST
Tmp

°C
App
Tmp
°C
Dew
Point
°C
Rel
Hum
%
Delta-T

°C
Wind Press
QNH
hPa
Press
MSL
hPa
Rain
since
9 am
mm
Dir
 
Spd
km/h
Gust
km/h
Spd
kts
Gust
kts
29/11:30pm - - - - - CALM 0 0 0 0 - - -
29/11:00pm - - - - - SSE 2 4 1 2 - - -
29/10:30pm - - - - - SSW 7 11 4 6 - - -
29/10:00pm - - - - - S 9 13 5 7 - - -
29/09:30pm - - - - - SSW 7 15 4 8 - - -
29/09:00pm - - - - - SSW 22 32 12 17 - - -
29/08:30pm - - - - - S 28 35 15 19 - - -
29/08:00pm - - - - - S 28 35 15 19 - - -
29/07:30pm - - - - - SSW 26 37 14 20 - - -
29/07:00pm - - - - - SSW 28 43 15 23 - - -
29/06:58pm - - - - - SSW 28 41 15 22 - - -
29/06:30pm - - - - - S 4 6 2 3 - - -
29/06:00pm - - - - - N 4 6 2 3 - - -
29/05:30pm - - - - - NNE 7 15 4 8 - - -
29/05:00pm - - - - - NNE 13 17 7 9 - - -
29/04:30pm - - - - - N 13 19 7 10 - - -
29/04:00pm - - - - - NNE 17 22 9 12 - - -
29/03:30pm - - - - - NNE 19 26 10 14 - - -
29/03:00pm - - - - - WNW 11 20 6 11 - - -
29/02:30pm - - - - - W 13 26 7 14 - - -
29/02:00pm - - - - - N 11 17 6 9 - - -
29/01:30pm - - - - - WNW 11 20 6 11 - - -
29/01:00pm - - - - - WNW 13 22 7 12 - - -
29/12:30pm - - - - - SSW 7 15 4 8 - - -
29/12:00pm - - - - - W 7 17 4 9 - - -
29/11:30am - - - - - NW 9 17 5 9 - - -
29/11:00am - - - - - NNE 20 26 11 14 - - -
29/10:30am - - - - - NNE 19 28 10 15 - - -
29/10:00am - - - - - NE 19 22 10 12 - - -
29/09:30am - - - - - N 9 19 5 10 - - -
29/09:00am - - - - - NNW 13 20 7 11 - - -
29/08:30am - - - - - NNW 17 26 9 14 - - -
29/08:00am - - - - - NNW 15 22 8 12 - - -
29/07:30am - - - - - NNW 13 20 7 11 - - -
29/07:00am - - - - - NW 11 17 6 9 - - -
29/06:30am - - - - - NW 9 15 5 8 - - -
29/06:00am - - - - - NW 7 15 4 8 - - -
29/05:30am - - - - - N 6 7 3 4 - - -
29/05:00am - - - - - NNW 9 11 5 6 - - -
29/04:30am - - - - - N 9 13 5 7 - - -
29/04:00am - - - - - N 9 13 5 7 - - -
29/03:30am - - - - - N 11 13 6 7 - - -
29/03:00am - - - - - N 4 7 2 4 - - -
29/02:30am - - - - - N 4 4 2 2 - - -
29/02:00am - - - - - NNW 6 9 3 5 - - -
29/01:30am - - - - - N 9 15 5 8 - - -
29/01:00am - - - - - N 13 19 7 10 - - -
29/12:30am - - - - - N 19 26 10 14 - - -
29/12:00am - - - - - N 19 26 10 14 - - -
 
Date/Time
EST
Tmp

°C
App
Tmp
°C
Dew
Point
°C
Rel
Hum
%
Delta-T

°C
Wind Press
QNH
hPa
Press
MSL
hPa
Rain
since
9 am
mm
Dir
 
Spd
km/h
Gust
km/h
Spd
kts
Gust
kts
28/11:30pm - - - - - N 11 15 6 8 - - -
28/11:00pm - - - - - N 11 15 6 8 - - -
28/10:30pm - - - - - N 15 24 8 13 - - -
28/10:00pm - - - - - N 20 32 11 17 - - -
28/09:30pm - - - - - N 20 30 11 16 - - -
28/09:00pm - - - - - NNE 32 46 17 25 - - -
28/08:40pm - - - - - N 32 52 17 28 - - -
28/08:30pm - - - - - N 33 46 18 25 - - -
28/08:00pm - - - - - NNE 32 44 17 24 - - -
28/07:30pm - - - - - NNE 39 48 21 26 - - -
28/07:00pm - - - - - NNE 37 52 20 28 - - -
28/06:30pm - - - - - NNE 37 48 20 26 - - -
28/06:11pm - - - - - NNE 35 54 19 29 - - -
28/06:00pm - - - - - NNE 35 43 19 23 - - -
28/05:30pm - - - - - NNE 37 46 20 25 - - -
28/05:00pm - - - - - NNE 35 46 19 25 - - -
28/04:30pm - - - - - NNE 35 44 19 24 - - -
28/04:00pm - - - - - NNE 35 46 19 25 - - -
28/03:30pm - - - - - NNE 33 44 18 24 - - -
28/03:00pm - - - - - NNE 33 44 18 24 - - -
28/02:30pm - - - - - NNE 33 46 18 25 - - -
28/02:00pm - - - - - NNE 30 41 16 22 - - -
28/01:30pm - - - - - NNE 32 43 17 23 - - -
28/01:00pm - - - - - NNE 28 39 15 21 - - -
28/12:30pm - - - - - NNE 32 39 17 21 - - -
28/12:00pm - - - - - NNE 30 39 16 21 - - -
28/11:30am - - - - - NNE 30 39 16 21 - - -
28/11:00am - - - - - NNE 28 37 15 20 - - -
28/10:30am - - - - - NNE 24 30 13 16 - - -
28/10:00am - - - - - NNE 20 24 11 13 - - -
28/09:30am - - - - - N 15 22 8 12 - - -
28/09:00am - - - - - NNW 11 17 6 9 - - -
28/08:30am - - - - - NW 11 19 6 10 - - -
28/08:00am - - - - - NW 11 19 6 10 - - -
28/07:30am - - - - - WNW 11 15 6 8 - - -
28/07:00am - - - - - WNW 13 15 7 8 - - -
28/06:30am - - - - - WNW 13 17 7 9 - - -
28/06:00am - - - - - WNW 13 17 7 9 - - -

Latest Capital City Observations: Canberra | Sydney | Melbourne | Brisbane | Adelaide | Perth | Hobart | Darwin

Other Formats:

Comma delimited format used in spreadsheet applications
http://www.bom.gov.au/fwo/IDN60901/IDN60901.94780.axf

JavaScript Object Notation format (JSON) in row-major order
http://www.bom.gov.au/fwo/IDN60901/IDN60901.94780.json